Weather in Vardane

Russia / Krasnodar Krai     43°44′21″N   39°32′46″E
temp.,
°C
wind,
m/s
gust,
m/s
humid.,
%
clouds,
%
prec.,
mm/h
press.,
hPa
HPBL,
m
17 may, mon
mon1700:00+17nw119234 0.0 100411
03:00+16sse458690 0.0 100663
06:00+15ese34893 0.0 1008107
09:00+18sse237552 0.0 1008306
12:00+18ssw3472100 0.1 1010447
15:00+17w317936 0.1 1010382
18:00+16sse238699 0.0 1011291
21:00+15ese118945 0.0 101347
18 may, tue
tue1800:00+14e228648 0.0 101262
03:00+14e2288100 0.0 101277
06:00+14e3383100 0.0 1012117
09:00+16sse468563 0.0 1013550
12:00+18sse57791 0.0 1013624
15:00+18sse45783 0.0 1012405
18:00+17se22815 0.0 1012170
21:00+16e2284100 0.0 101223
19 may, wed
wed1900:00+16wnw1276100 0.0 101114
03:00+15nnw4693100 0.4 1012214
06:00+14nnw3396100 13.4 1013199
09:00+14ssw119499 18.4 1016103
12:00+16s34760 1.5 1018537
15:00+17s56675 1.9 1019790
18:00+17sse46740 0.0 1019370
21:00+14ese22840 0.1 101935
20 may, thu
thu2000:00+13ene33670 0.0 101961
03:00+13ne33560 0.0 101859
06:00+14ne33560 0.0 101759
09:00+20nw22430 0.0 1016286
12:00+21wnw32430 0.0 1015555
15:00+22wnw22435 0.0 1014407
18:00+21nw11600 0.0 101211
21:00+19ne33580 0.0 101222
21 may, fri
fri2100:00+19ne43410 0.0 101127
03:00+19ne43350 0.0 101025
06:00+19ne44430 0.0 101029
09:00+26nne22370 0.0 1009139
12:00+26s21380 0.0 1009308
15:00+27ese014185 0.0 1008220
18:00+27n22520 0.0 100611
21:00+23ne43540 0.0 100626